Miscellaneous Local Product
Issued by NWS North Platte, NE

Home | Current Version | Previous Version | Text Only | Print | Product List | Glossary On
Versions: 1 2 3 4 5 6 7 8 9 10 11 12 13 14 15 16 17 18 19 20 21 22 23 24 25 26 27 28 29 30 31 32 33 34 35 36 37 38 39 40 41 42 43 44 45 46 47 48 49 50
000
AXUS43 KLBF 271810
MISLBF


WESTERN AND NORTH CENTRAL NEBRASKA HOURLY WEATHER ROUNDUP
NATIONAL WEATHER SERVICE NORTH PLATTE NE
100 PM CDT WED AUG 27 2014

***STATIONS NOT REPORTING VARIABLES SUCH AS SKY/WEATHER OR
PRESSURE ARE PROVIDED BY THE NEBRASKA DEPARTMENT OF
ROADS...RAWS...AND APRS NETWORKS...AND ARE NOT UNDER
NATIONAL WEATHER SERVICE QUALITY CONTROL***

...OBSERVATIONS IN AND NEAR THE EASTERN PANHANDLE OF NEBRASKA...

CITY           SKY/WX    TMP DP  RH WIND       PRES   REMARKS
PINE RIDGE     MOSUNNY   77  63  61 MISG      30.10F
CHADRON        CLOUDY    74  62  66 NE8       30.10S
ALLIANCE       CLOUDY    76  60  57 SE16      30.11F
SIDNEY         CLOUDY    75  59  57 S10       30.13F
WHITECLAY        N/A     76  62  61 E3          N/A
RUSHVILLE        N/A     83  62  48 S17         N/A
GORDON           N/A     84  62  47 SE16        N/A
CRESCENT LAKE    N/A     75  62  64 SE7         N/A
LISCO            N/A     79  63  57 E9          N/A
BIG SPRINGS      N/A     74  65  74 S9          N/A
$$

...OBSERVATIONS IN NORTH CENTRAL NEBRASKA...

CITY           SKY/WX    TMP DP  RH WIND       PRES   REMARKS
VALENTINE      CLOUDY    75  66  73 SE9       30.12S
THEDFORD       CLOUDY    77  65  67 SE13G20   30.14S
AINSWORTH      CLOUDY    70  65  84 SE10      30.14S
O`NEILL        CLOUDY    70  68  93 SE9       30.14S
ORD            LGT RAIN  69  65  86 SE13      30.13F
BROKEN BOW     CLOUDY    71  67  87 SE10      30.14F
BROWNLEE         N/A     75  66  73 SE13        N/A
SPRINGVIEW       N/A     71  66  84 E5G14       N/A
ROSE             N/A     72  72  99 E12         N/A
NEWPORT          N/A     71  68  90 SE13        N/A
SARGENT          N/A     69  67  95 CALM        N/A
COMSTOCK         N/A     75  73  94 SE10        N/A
CHAMBERS         N/A     74  69  85 E8          N/A
EWING            N/A     71  70  96 S3          N/A
$$

...OBSERVATIONS IN SOUTHWEST NEBRASKA AND FAR NORTHEAST COLORADO...

CITY           SKY/WX    TMP DP  RH WIND       PRES   REMARKS
WRAY             N/A     78  63  59 S6        30.10F
HOLYOKE        MOCLDY    73  63  68 S9        30.11F
IMPERIAL       CLOUDY    75  64  68 S16       30.10F
OGALLALA       CLOUDY    73  62  69 S14       30.10F
NORTH PLATTE   CLOUDY    72  66  81 E16       30.12F
MCCOOK         PTSUNNY   77  65  66 SE10      30.11F
LEXINGTON      CLOUDY    72  68  87 E13       30.14F
PAXTON           N/A     74  67  77 SE5         N/A
SUTHERLAND       N/A     77  72  83 S9          N/A
BRADY            N/A     70  66  86 NE3G12      N/A
GOTHENBURG       N/A     70  64  80 E5          N/A
CALLAWAY         N/A     70  68  95 SE8         N/A
$$

...SOME WEATHER OBSERVATIONS FROM AROUND THE REGION...

CITY           SKY/WX    TMP DP  RH WIND       PRES   REMARKS
DENVER         MOSUNNY   69  57  65 VRB5      30.16F
LARAMIE        PTSUNNY   65  47  52 W13       30.26F
CHEYENNE       CLOUDY    63  50  62 NW7       30.22S
SCOTTSBLUFF    LGT RAIN  70  64  81 SE5       30.12R
RAPID CITY     MOSUNNY   71  60  68 NE5       30.14S
PIERRE         CLOUDY    66  63  90 E12       30.10F
WINNER         CLOUDY    73  66  78 SE15      30.11F
SIOUX FALLS    PTSUNNY   69  60  73 SE12      30.16F
OMAHA          LGT RAIN  70  67  90 SE12      30.16S
GRAND ISLAND   PTSUNNY   73  68  84 E12       30.14F
KANSAS CITY    CLOUDY    77  67  71 NE10      30.14F
WICHITA        PTSUNNY   87  65  47 SE6       30.10F
HAYS           FAIR      81  64  57 SE12      30.11S
LIBERAL        FAIR      84  66  54 S17G25    30.12F
GOODLAND       CLOUDY    75  64  68 S15G24    30.12F
$$



USA.gov is the U.S. government's official web portal to all federal, state and local government web resources and services.